Flag for Puerto Rico Weather past 2 weeks in San Juan, Puerto Rico

Now
79 °F

Passing clouds.


Feels Like: 83 °F
Forecast: 80 / 86 °F
Wind: No wind

Location: Luis Munoz Marin

Current Time: Sep 2, 2014 at 4:07:37 AM

Latest Report: Sep 2, 2014 at 2:56 AM


Visibility: 10 mi

Pressure: 29.98 "Hg

Humidity: 88%

Dew point: 75 °F

Location of San JuanLocation

Historic Weather in San Juan — Graph

°F

San Juan temperature yesterday

Maximum temperature yesterday: 89 °F (at 11:56 AM)
Minimum temperature yesterday: 78 °F (at 4:56 AM)
Average temperature yesterday: 83 °F

Past Weeks' High & Low Weather Summary

 TemperatureHumidityPressure
High93 °F (Aug 26, 12:56 PM)100% (Aug 22, 4:56 AM)30.07 "Hg (Aug 22, 4:56 AM)
Low76 °F (Aug 24, 5:56 AM)45% (Aug 26, 4:56 PM)29.83 "Hg (Aug 22, 5:56 PM)
Average83 °F80%29.97 "Hg
* Reported Aug 18 2:56 AM — Sep 2 2:56 AM, San Juan, Weather by CustomWeather, © 2014

Note: Actual official high and low records may vary slightly from our data, if they occured in-between our weather recording intervals... More about our weather records

Advertising

San Juan weather history for previous 24 hours

 ConditionsComfort  
Time TempWeatherWind HumidityBarometerVisibility
2:56 AM
Sep 2
79 °FPassing clouds.No wind88%29.98 "Hg10 mi
1:56 AM80 °FPassing clouds.No wind85%29.99 "Hg10 mi
12:56 AM80 °FPassing clouds.No wind87%30.01 "Hg10 mi
11:56 PM
Sep 1
81 °FPassing clouds.3 mph85%30.02 "Hg10 mi
10:56 PM81 °FPassing clouds.No wind88%30.03 "Hg10 mi
9:56 PM81 °FPartly cloudy.3 mph88%30.03 "Hg10 mi
8:56 PM82 °FPassing clouds.3 mph79%30.01 "Hg10 mi
7:56 PM83 °FPassing clouds.7 mph77%29.99 "Hg10 mi
6:56 PM83 °FScattered clouds.10 mph82%29.97 "Hg10 mi
5:56 PM84 °FScattered clouds.14 mph77%29.96 "Hg10 mi
4:56 PM86 °FScattered clouds.14 mph67%29.96 "Hg10 mi
3:56 PM87 °FScattered clouds.14 mph69%29.96 "Hg10 mi
2:56 PM86 °FBroken clouds.12 mph72%29.96 "Hg10 mi
1:56 PM87 °FScattered clouds.15 mph67%29.99 "Hg10 mi
12:56 PM89 °FScattered clouds.20 mph65%30.00 "Hg10 mi
11:56 AM89 °FScattered clouds.17 mph68%30.02 "Hg10 mi
10:56 AM88 °FScattered clouds.13 mph65%30.03 "Hg10 mi
9:56 AM88 °FScattered clouds.15 mph65%30.04 "Hg10 mi
8:56 AM85 °FScattered clouds.10 mph72%30.03 "Hg10 mi
7:56 AM82 °FScattered clouds.5 mph77%30.04 "Hg10 mi
6:56 AM79 °FPassing clouds.No wind84%30.02 "Hg10 mi
5:56 AM78 °FPassing clouds.No wind84%30.01 "Hg10 mi
4:56 AM78 °FPassing clouds.No wind84%29.99 "Hg10 mi
Weather by CustomWeather, © 2014

See weather overviewHow to use our weather pages